SCP
0 0 0 0 0 0 0 0 0 0 0 0 0 0 0 0 0 0 0 0 0 0 0 0 0 -0 0 0 0 0 0 0 0 0 0 0 0 0 0 0 0 0 0 0
0 0 0 0 0 0 0 0 0 0 0 0 0 0 0 0 0 0 0 0 0 0 0 0 0 0 0 0 0 0 0 0 0 0 0 0 0 0 0 0 0 0 0 0
0 0 0 0 0 0 0 0 0 0 0 0 0 0 0 0 0 0 0 0 0 0 0 0 0 0 0 0 0 0 0 0 0 0 0 0 0 0 0 0 0 0 0 0
0 0 0 0 0 0 0 0 0 0 0 0 0 0 0 0 0 0 0 0 0 0 0 0 0 0 0 0 0 0 0 0 0 0 0 0 0 0 0 0 0 0 0 0
0 0 0 0 0 0 0 0 0 0 0 0 0 0 0 0 0 0 0 0 0 0 0 0 0 0 0 0 0 0 0 0 0 0 0 0 0 0 0 0 0 0 0 0
0 0 0 0 0 0 0 0 0 0 0 0 0 0 0 0 0 0 0 0 0 0 0 0 0 0 0 0 0 0 0 0 0 0 0 0 0 0 0 0 0 0 0 0
0 0 -0 -0 -0 0 0 0 0 0 0 0 0 0 0 0 0 0 0 0 0 0 0 0 0 0 0 0 0 0 0 0 0 0 0 0 0 0 0 0 0 0 0 0
0 0 -0 -0 -0 -0 0 0 0 0 0 0 0 0 0 0 0 0 0 0 0 0 0 0 0 0 0 0 0 0 0 0 0 0 0 0 0 0 0 0 0 0 0 0
0 0 -0 -0 -0 -0 0 0 0 0 0 0 0 0 0 0 0 0 0 0 0 0 0 0 0 0 0 0 0 0 -0 0 0 0 0 0 0 0 0 0 0 0 0 0
0 0 -0 -0 -0 -0 0 0 0 0 0 0 0 -0 0 0 0 0 0 0 0 0 0 0 0 0 0 0 0 0 0 0 0 0 0 0 0 0 0 0 0 0 0 0
0 0 -0 -0 -0 -0 0 0 0 0 0 0 0 -0 0 0 -0 0 -0 0 0 0 0 0 0 0 0 0 0 0 0 0 0 0 0 0 0 0 0 0 0 0 0 0
-0 -0 -0 -0 -0 -0 0 0 0 0 0 0 0 -0 -0 -0 -0 -0 -0 0 0 0 0 0 0 0 0 0 0 -0 0 0 0 0 0 0 0 0 0 0 0 0 0 0
-0 -0 -0 -0 -0 -0 0 0 0 0 0 0 0 0 0 0 0 0 -0 0 -0 0 0 0 0 0 0 0 0 0 0 -0 0 0 0 0 0 0 0 0 0 0 0 0
-0 -0 -0 -0 -0 -0 0 0 0 0 0 0 0 0 -0 -0 0 -0 -0 -0 0 0 0 0 0 0 0 0 0 0 0 0 0 0 -0 -0 0 0 0 0 0 0 0 0
-0 -0 0 -0 -0 -0 0 0 0 0 0 0 0 -0 -0 0 -0 0 0 0 -0 0 0 0 0 0 0 0 0 0 -0 -0 -0 -0 -0 -0 0 0 0 0 0 0 0 0
-0 0 -0 -0 -0 -0 0 0 0 0 0 0 0 -0 -0 0 0 -0 -0 -0 0 0 0 0 0 0 0 0 0 0 -0 -0 -0 -0 -0 0 0 0 0 0 0 0 0 0
-0 0 -0 -0 -0 0 0 0 0 0 0 0 0 0 0 -0 0 -0 0 0 0 -0 -0 0 0 0 0 0 0 0 0 -0 -0 -0 0 0 0 0 0 0 0 0 0 0
0 0 -0 -0 -0 0 0 0 0 0 0 0 0 0 0 -0 -0 -0 0 0 0 0 0 0 0 0 0 0 0 0 0 -0 -0 -0 -0 -0 0 0 0 0 0 0 0 0
0 -0 -0 0 0 0 0 0 0 0 0 0 0 0 0 0 0 -0 0 0 0 0 0 -0 -0 -0 -0 -0 -0 0 0 0 0 -0 -0 -0 0 0 0 0 0 0 0 0
-0 0 0 0 0 0 0 0 0 0 0 0 0 -0 0 0 -0 -0 -0 -0 0 0 -0 0 -0 0 -0 0 -0 0 0 0 0 0 -0 -0 0 0 0 0 0 0 0 0
0 0 0 0 0 0 0 0 0 0 0 0 0 0 0 0 0 -0 -0 -0 -0 -0 0 0 -0 -0 -0 -0 0 0 0 0 0 0 0 -0 0 0 0 0 0 0 0 0
0 0 0 0 0 0 0 0 0 0 0 0 0 0 0 0 0 0 0 -0 0 -0 0 0 -0 -0 -0 0 -0 -0 -0 0 0 0 0 0 0 0 -0 -0 0 0 0 0
0 0 0 0 0 0 0 0 0 0 0 0 0 0 0 0 0 0 -0 0 0 -0 0 -0 -0 0 -0 -0 0 0 -0 -0 0 0 0 0 0 0 0 -0 -0 0 0 0
0 0 0 0 0 0 0 0 0 0 0 0 0 0 0 0 0 0 0 -0 0 -0 0 -0 0 -0 -0 -0 0 -0 -0 -0 -0 0 0 0 0 0 0 -0 -0 -0 0 0
0 0 0 0 0 0 0 -0 -0 -0 0 0 0 0 0 0 0 0 -0 0 0 0 -0 0 0 0 0 0 -0 0 0 -0 -0 -0 -0 -0 0 -0 0 0 0 0 0 0
0 0 0 0 0 0 0 0 0 0 0 0 0 0 0 0 0 0 0 -0 -0 -0 -0 -0 0 0 0 0 -0 -0 -0 0 -0 -0 -0 -0 -0 -0 -0 -0 0 0 -0 -0
0 0 0 -0 0 0 0 0 0 0 -0 0 0 0 0 0 0 0 0 -0 0 0 -0 -0 0 0 0 0 0 0 -0 -0 -0 -0 -0 -0 -0 -0 0 0 -0 -0 -0 -0
Wind_Speed_500mb
61 55 55 58 58 57 31 22 7 29 34 22 16 12 17 15 21 26 13 20 26 27 32 25 25 15 24 49 36 21 28 22 26 37 39 41 41 37 34 14 38 22 8 12
64 50 50 53 48 50 44 29 19 23 18 7 10 17 17 17 20 20 21 19 18 26 28 15 28 17 19 51 33 26 22 12 23 33 26 41 41 42 41 36 8 19 11 9
60 48 45 48 44 42 31 18 8 17 19 24 21 20 20 18 11 19 29 23 23 23 26 23 20 30 23 41 42 57 10 15 24 24 30 30 38 42 42 36 24 26 29 26
53 45 41 43 40 40 32 19 10 18 8 18 23 23 16 22 22 25 30 7 19 27 17 30 15 28 33 36 37 38 27 22 27 31 43 31 37 45 46 43 40 35 31 37
48 41 34 40 38 35 29 12 16 28 38 33 25 25 19 26 31 30 25 24 29 28 22 14 33 35 29 14 21 28 28 14 26 19 37 43 36 42 44 45 47 43 43 37
43 41 28 35 42 34 22 30 25 21 26 23 23 21 25 30 33 25 38 32 28 30 23 39 46 47 44 34 28 18 14 15 15 23 34 42 39 38 38 41 42 43 39 31
36 40 26 28 33 36 23 22 25 17 16 21 21 26 34 34 36 31 35 36 26 32 45 51 42 44 44 42 33 23 11 13 7 11 24 42 34 38 42 39 34 40 36 36
29 33 28 25 29 29 28 26 22 14 15 36 27 38 37 42 41 34 32 27 35 40 40 27 22 18 18 26 34 30 22 3 8 8 17 23 35 42 37 37 35 29 39 37
28 24 26 28 28 32 27 27 20 17 18 15 38 43 37 24 24 25 38 39 44 37 21 17 12 11 17 12 10 32 27 17 8 6 12 17 29 21 37 32 29 29 28 21
31 21 18 24 29 31 33 27 28 17 18 24 41 37 27 38 36 19 31 42 40 26 12 11 10 19 13 7 9 15 20 11 21 16 11 19 27 40 33 14 13 26 25 35
31 19 17 20 28 29 35 31 27 21 17 54 29 41 48 42 38 18 41 25 13 15 10 7 7 6 7 8 11 5 12 8 10 14 13 20 49 15 16 21 44 39 35 35
31 22 18 22 29 33 37 40 30 39 27 46 54 54 42 43 39 30 31 25 34 11 8 10 10 13 8 15 8 14 7 6 8 8 5 22 33 35 54 64 42 40 41 41
33 23 20 21 27 36 39 45 37 36 22 40 28 31 5 22 22 19 26 20 13 21 20 13 8 8 15 12 10 20 12 4 6 19 23 30 28 49 59 60 65 47 41 43
31 26 20 23 27 36 42 39 36 24 19 11 24 42 36 31 17 24 25 33 25 23 23 13 7 11 19 19 23 19 19 9 16 12 29 31 41 59 66 60 59 57 42 39
29 25 20 22 27 36 44 34 19 14 12 14 37 43 11 10 11 12 15 19 21 20 11 7 14 22 13 18 16 12 9 2 7 7 21 14 39 55 48 52 58 53 39 42
26 25 23 23 28 39 38 9 7 15 27 11 9 30 31 11 11 18 17 25 21 17 6 12 13 31 8 8 13 5 13 12 12 8 15 25 35 38 41 50 53 49 41 41
25 23 18 23 30 34 22 12 22 31 25 6 13 15 10 18 18 16 18 17 9 9 10 11 24 32 6 5 15 33 28 17 14 13 17 29 24 34 39 45 51 32 41 49
22 21 24 33 32 17 10 11 25 16 6 7 7 9 12 13 20 12 6 8 4 10 11 17 19 25 9 7 23 29 25 20 20 4 2 16 15 32 33 46 34 20 38 51
21 19 31 26 4 8 11 19 17 7 6 9 10 10 9 23 29 25 3 7 6 11 9 17 10 6 8 19 23 27 32 33 29 19 8 10 17 24 32 39 36 35 18 39
17 26 11 6 4 11 15 9 9 4 4 8 11 24 13 17 26 13 18 5 5 5 3 9 6 9 10 13 28 33 31 28 31 40 19 6 16 14 26 27 32 38 22 17
11 4 4 11 14 7 5 6 5 3 6 10 18 21 18 25 10 12 9 6 7 7 2 5 2 4 22 33 37 35 39 37 34 33 17 15 9 5 11 27 27 44 35 29
8 7 5 6 4 5 6 6 6 8 5 7 14 18 23 18 12 6 9 5 7 7 19 6 4 4 32 46 53 39 43 40 29 4 9 14 11 14 18 20 31 34 36 41
10 6 2 4 6 6 7 5 7 6 6 8 18 11 13 8 6 8 6 5 7 25 5 4 3 9 24 29 37 37 39 46 50 48 36 24 23 20 16 19 27 29 34 36
11 10 8 9 9 10 10 14 11 7 10 21 23 18 7 7 5 6 6 6 9 6 5 7 8 32 13 18 26 30 27 31 32 34 31 36 33 24 18 17 17 18 20 20
10 10 8 14 23 20 19 17 20 21 19 21 23 24 10 8 6 6 6 5 7 8 4 9 21 15 19 15 18 19 23 25 26 24 19 23 18 13 16 15 15 19 21 18
9 14 13 20 18 15 18 22 24 24 26 21 11 7 5 6 6 6 8 6 7 6 6 24 7 19 7 8 14 12 12 17 19 20 19 18 18 17 18 20 20 23 27 29
12 13 22 33 29 21 25 20 26 27 25 12 7 7 9 6 7 7 7 8 9 7 20 40 21 19 19 20 15 9 13 11 16 17 16 15 17 18 21 21 22 25 25 30
Wind_Direction_500mb
359 358 1 3 2 359 27 345 350 351 11 43 3 344 330 320 331 336 337 308 341 355 338 317 308 41 352 359 330 288 256 231 244 248 193 199 221 223 208 200 221 231 242 254
356 357 2 6 10 10 354 342 328 341 358 22 345 360 318 328 341 343 341 326 340 322 318 309 325 8 347 349 357 10 341 262 223 238 235 185 214 223 222 218 197 235 243 240
356 358 4 11 13 19 5 348 338 346 355 360 343 344 328 340 7 343 332 318 326 347 330 315 305 350 348 342 4 335 287 274 259 226 226 195 205 222 223 219 210 224 234 236
358 358 3 14 15 20 15 15 342 9 307 339 320 325 333 340 347 353 325 330 352 337 332 321 9 341 342 339 3 346 352 275 256 258 248 244 210 220 226 218 226 214 226 235
359 360 5 15 17 27 36 42 358 335 295 304 320 34 354 342 336 331 317 332 335 326 321 350 320 329 332 334 340 345 344 290 295 271 265 257 259 271 220 234 215 228 222 223
359 1 5 12 16 31 21 16 356 348 308 333 350 348 350 337 320 315 322 322 316 305 355 319 309 295 283 276 289 314 323 353 326 260 251 258 254 237 259 225 233 219 231 218
359 1 359 3 9 17 0 357 349 338 329 332 358 337 335 323 322 315 305 306 310 322 322 315 294 273 261 254 248 200 272 321 277 276 259 237 250 243 247 260 245 235 242 241
355 2 357 352 359 1 6 352 354 343 315 324 330 347 333 330 324 329 320 348 334 328 316 297 292 286 246 249 250 194 212 205 272 257 238 262 242 247 247 248 262 269 230 249
346 351 358 348 346 349 357 342 347 335 315 331 330 330 335 333 340 321 317 327 334 318 289 290 261 248 225 184 199 196 187 204 252 307 231 229 237 268 328 304 260 267 282 289
343 339 351 353 348 345 342 331 327 325 297 285 324 320 332 326 324 317 331 327 327 302 277 282 263 249 289 283 217 177 188 196 217 234 258 251 15 332 321 238 293 289 331 328
338 330 328 338 338 340 335 319 313 297 282 297 295 312 317 311 315 326 325 325 339 319 320 300 342 302 0 322 352 1 188 214 188 210 235 243 0 25 12 340 339 338 330 326
332 312 310 319 333 333 329 319 316 296 259 280 299 298 290 277 273 303 310 295 318 334 340 356 324 313 315 335 311 24 63 2 314 323 24 359 6 2 348 360 352 341 328 325
329 316 306 312 328 335 334 324 316 312 288 301 307 310 341 313 280 289 288 307 312 334 344 332 305 311 344 345 343 358 21 7 298 318 13 4 20 353 358 352 340 346 337 339
325 311 300 314 321 331 334 327 319 299 280 284 300 321 311 320 302 268 271 291 294 302 318 309 290 307 316 316 310 314 317 347 335 314 7 347 356 349 342 339 348 351 347 346
321 313 300 314 318 327 326 329 324 311 304 321 304 312 315 314 335 315 299 288 284 290 308 275 292 298 330 310 305 297 25 3 6 326 343 346 323 326 333 338 336 341 347 359
315 305 306 309 322 328 335 317 45 358 334 319 305 310 319 296 311 303 310 298 278 280 280 286 278 289 278 305 301 89 280 238 221 295 328 335 327 335 342 337 336 335 14 16
310 303 306 309 318 319 306 291 297 309 310 292 296 300 349 337 310 312 301 298 269 256 271 247 267 278 284 266 286 303 299 322 326 293 337 334 344 339 344 339 335 358 34 32
303 300 310 313 317 319 307 287 316 314 295 281 282 285 339 328 326 329 274 270 273 249 246 272 278 293 281 257 279 300 307 312 322 9 330 341 324 352 341 348 351 24 30 32
301 305 317 324 340 316 293 298 306 323 265 302 284 303 334 334 333 323 220 257 257 256 233 255 267 249 226 246 279 287 304 317 313 303 235 339 327 335 339 352 8 21 43 41
294 313 296 304 331 314 306 323 350 292 247 243 267 304 316 335 337 328 327 274 280 274 235 289 244 275 333 306 353 14 359 333 318 312 267 245 296 335 337 0 12 21 40 47
291 271 286 301 316 309 291 301 283 237 251 226 257 277 309 319 332 337 307 320 276 294 308 293 216 23 357 44 18 355 350 332 305 289 264 212 261 69 29 11 50 26 29 69
278 307 320 292 283 264 270 255 244 242 265 263 303 345 326 324 326 315 298 293 304 293 330 320 11 266 74 54 35 22 4 6 3 10 197 204 190 125 88 50 80 58 47 49
264 191 241 250 191 255 234 221 235 249 263 285 315 353 314 322 307 272 268 283 266 298 296 270 62 283 91 63 45 29 20 48 49 49 53 65 83 96 107 95 72 64 59 53
196 180 214 230 188 237 222 248 305 326 333 316 318 326 343 297 279 280 269 288 323 278 311 36 216 267 99 95 64 38 40 40 54 52 47 61 61 73 79 70 66 60 61 38
215 212 241 218 235 245 268 292 304 304 306 308 309 311 306 288 276 266 282 268 264 263 15 10 353 38 52 47 67 52 30 32 41 50 59 42 50 40 10 17 3 359 356 353
237 234 238 265 266 262 276 272 274 278 290 297 318 311 285 259 256 245 237 253 265 355 359 209 82 356 34 259 55 37 22 14 19 18 17 15 8 6 352 341 337 345 348 347
230 234 241 259 270 262 261 262 263 272 280 278 261 255 244 272 244 244 231 295 359 275 358 295 356 338 334 325 320 329 319 345 348 340 339 337 337 339 343 341 341 339 331 328
Wind_Speed_850mb
61 55 55 58 58 57 31 22 7 29 34 22 16 12 17 15 21 26 13 20 26 27 32 25 25 15 24 49 36 21 28 22 26 37 39 41 41 37 34 14 38 22 8 12
64 50 50 53 48 50 44 29 19 23 18 7 10 17 17 17 20 20 21 19 18 26 28 15 28 17 19 51 33 26 22 12 23 33 26 41 41 42 41 36 8 19 11 9
60 48 45 48 44 42 31 18 8 17 19 24 21 20 20 18 11 19 29 23 23 23 26 23 20 30 23 41 42 57 10 15 24 24 30 30 38 42 42 36 24 26 29 26
53 45 41 43 40 40 32 19 10 18 8 18 23 23 16 22 22 25 30 7 19 27 17 30 15 28 33 36 37 38 27 22 27 31 43 31 37 45 46 43 40 35 31 37
48 41 34 40 38 35 29 12 16 28 38 33 25 25 19 26 31 30 25 24 29 28 22 14 33 35 29 14 21 28 28 14 26 19 37 43 36 42 44 45 47 43 43 37
43 41 28 35 42 34 22 30 25 21 26 23 23 21 25 30 33 25 38 32 28 30 23 39 46 47 44 34 28 18 14 15 15 23 34 42 39 38 38 41 42 43 39 31
36 40 26 28 33 36 23 22 25 17 16 21 21 26 34 34 36 31 35 36 26 32 45 51 42 44 44 42 33 23 11 13 7 11 24 42 34 38 42 39 34 40 36 36
29 33 28 25 29 29 28 26 22 14 15 36 27 38 37 42 41 34 32 27 35 40 40 27 22 18 18 26 34 30 22 3 8 8 17 23 35 42 37 37 35 29 39 37
28 24 26 28 28 32 27 27 20 17 18 15 38 43 37 24 24 25 38 39 44 37 21 17 12 11 17 12 10 32 27 17 8 6 12 17 29 21 37 32 29 29 28 21
31 21 18 24 29 31 33 27 28 17 18 24 41 37 27 38 36 19 31 42 40 26 12 11 10 19 13 7 9 15 20 11 21 16 11 19 27 40 33 14 13 26 25 35
31 19 17 20 28 29 35 31 27 21 17 54 29 41 48 42 38 18 41 25 13 15 10 7 7 6 7 8 11 5 12 8 10 14 13 20 49 15 16 21 44 39 35 35
31 22 18 22 29 33 37 40 30 39 27 46 54 54 42 43 39 30 31 25 34 11 8 10 10 13 8 15 8 14 7 6 8 8 5 22 33 35 54 64 42 40 41 41
33 23 20 21 27 36 39 45 37 36 22 40 28 31 5 22 22 19 26 20 13 21 20 13 8 8 15 12 10 20 12 4 6 19 23 30 28 49 59 60 65 47 41 43
31 26 20 23 27 36 42 39 36 24 19 11 24 42 36 31 17 24 25 33 25 23 23 13 7 11 19 19 23 19 19 9 16 12 29 31 41 59 66 60 59 57 42 39
29 25 20 22 27 36 44 34 19 14 12 14 37 43 11 10 11 12 15 19 21 20 11 7 14 22 13 18 16 12 9 2 7 7 21 14 39 55 48 52 58 53 39 42
26 25 23 23 28 39 38 9 7 15 27 11 9 30 31 11 11 18 17 25 21 17 6 12 13 31 8 8 13 5 13 12 12 8 15 25 35 38 41 50 53 49 41 41
25 23 18 23 30 34 22 12 22 31 25 6 13 15 10 18 18 16 18 17 9 9 10 11 24 32 6 5 15 33 28 17 14 13 17 29 24 34 39 45 51 32 41 49
22 21 24 33 32 17 10 11 25 16 6 7 7 9 12 13 20 12 6 8 4 10 11 17 19 25 9 7 23 29 25 20 20 4 2 16 15 32 33 46 34 20 38 51
21 19 31 26 4 8 11 19 17 7 6 9 10 10 9 23 29 25 3 7 6 11 9 17 10 6 8 19 23 27 32 33 29 19 8 10 17 24 32 39 36 35 18 39
17 26 11 6 4 11 15 9 9 4 4 8 11 24 13 17 26 13 18 5 5 5 3 9 6 9 10 13 28 33 31 28 31 40 19 6 16 14 26 27 32 38 22 17
11 4 4 11 14 7 5 6 5 3 6 10 18 21 18 25 10 12 9 6 7 7 2 5 2 4 22 33 37 35 39 37 34 33 17 15 9 5 11 27 27 44 35 29
8 7 5 6 4 5 6 6 6 8 5 7 14 18 23 18 12 6 9 5 7 7 19 6 4 4 32 46 53 39 43 40 29 4 9 14 11 14 18 20 31 34 36 41
10 6 2 4 6 6 7 5 7 6 6 8 18 11 13 8 6 8 6 5 7 25 5 4 3 9 24 29 37 37 39 46 50 48 36 24 23 20 16 19 27 29 34 36
11 10 8 9 9 10 10 14 11 7 10 21 23 18 7 7 5 6 6 6 9 6 5 7 8 32 13 18 26 30 27 31 32 34 31 36 33 24 18 17 17 18 20 20
10 10 8 14 23 20 19 17 20 21 19 21 23 24 10 8 6 6 6 5 7 8 4 9 21 15 19 15 18 19 23 25 26 24 19 23 18 13 16 15 15 19 21 18
9 14 13 20 18 15 18 22 24 24 26 21 11 7 5 6 6 6 8 6 7 6 6 24 7 19 7 8 14 12 12 17 19 20 19 18 18 17 18 20 20 23 27 29
12 13 22 33 29 21 25 20 26 27 25 12 7 7 9 6 7 7 7 8 9 7 20 40 21 19 19 20 15 9 13 11 16 17 16 15 17 18 21 21 22 25 25 30
Wind_Direction_850mb
359 358 1 3 2 359 27 345 350 351 11 43 3 344 330 320 331 336 337 308 341 355 338 317 308 41 352 359 330 288 256 231 244 248 193 199 221 223 208 200 221 231 242 254
356 357 2 6 10 10 354 342 328 341 358 22 345 360 318 328 341 343 341 326 340 322 318 309 325 8 347 349 357 10 341 262 223 238 235 185 214 223 222 218 197 235 243 240
356 358 4 11 13 19 5 348 338 346 355 360 343 344 328 340 7 343 332 318 326 347 330 315 305 350 348 342 4 335 287 274 259 226 226 195 205 222 223 219 210 224 234 236
358 358 3 14 15 20 15 15 342 9 307 339 320 325 333 340 347 353 325 330 352 337 332 321 9 341 342 339 3 346 352 275 256 258 248 244 210 220 226 218 226 214 226 235
359 360 5 15 17 27 36 42 358 335 295 304 320 34 354 342 336 331 317 332 335 326 321 350 320 329 332 334 340 345 344 290 295 271 265 257 259 271 220 234 215 228 222 223
359 1 5 12 16 31 21 16 356 348 308 333 350 348 350 337 320 315 322 322 316 305 355 319 309 295 283 276 289 314 323 353 326 260 251 258 254 237 259 225 233 219 231 218
359 1 359 3 9 17 0 357 349 338 329 332 358 337 335 323 322 315 305 306 310 322 322 315 294 273 261 254 248 200 272 321 277 276 259 237 250 243 247 260 245 235 242 241
355 2 357 352 359 1 6 352 354 343 315 324 330 347 333 330 324 329 320 348 334 328 316 297 292 286 246 249 250 194 212 205 272 257 238 262 242 247 247 248 262 269 230 249
346 351 358 348 346 349 357 342 347 335 315 331 330 330 335 333 340 321 317 327 334 318 289 290 261 248 225 184 199 196 187 204 252 307 231 229 237 268 328 304 260 267 282 289
343 339 351 353 348 345 342 331 327 325 297 285 324 320 332 326 324 317 331 327 327 302 277 282 263 249 289 283 217 177 188 196 217 234 258 251 15 332 321 238 293 289 331 328
338 330 328 338 338 340 335 319 313 297 282 297 295 312 317 311 315 326 325 325 339 319 320 300 342 302 0 322 352 1 188 214 188 210 235 243 0 25 12 340 339 338 330 326
332 312 310 319 333 333 329 319 316 296 259 280 299 298 290 277 273 303 310 295 318 334 340 356 324 313 315 335 311 24 63 2 314 323 24 359 6 2 348 360 352 341 328 325
329 316 306 312 328 335 334 324 316 312 288 301 307 310 341 313 280 289 288 307 312 334 344 332 305 311 344 345 343 358 21 7 298 318 13 4 20 353 358 352 340 346 337 339
325 311 300 314 321 331 334 327 319 299 280 284 300 321 311 320 302 268 271 291 294 302 318 309 290 307 316 316 310 314 317 347 335 314 7 347 356 349 342 339 348 351 347 346
321 313 300 314 318 327 326 329 324 311 304 321 304 312 315 314 335 315 299 288 284 290 308 275 292 298 330 310 305 297 25 3 6 326 343 346 323 326 333 338 336 341 347 359
315 305 306 309 322 328 335 317 45 358 334 319 305 310 319 296 311 303 310 298 278 280 280 286 278 289 278 305 301 89 280 238 221 295 328 335 327 335 342 337 336 335 14 16
310 303 306 309 318 319 306 291 297 309 310 292 296 300 349 337 310 312 301 298 269 256 271 247 267 278 284 266 286 303 299 322 326 293 337 334 344 339 344 339 335 358 34 32
303 300 310 313 317 319 307 287 316 314 295 281 282 285 339 328 326 329 274 270 273 249 246 272 278 293 281 257 279 300 307 312 322 9 330 341 324 352 341 348 351 24 30 32
301 305 317 324 340 316 293 298 306 323 265 302 284 303 334 334 333 323 220 257 257 256 233 255 267 249 226 246 279 287 304 317 313 303 235 339 327 335 339 352 8 21 43 41
294 313 296 304 331 314 306 323 350 292 247 243 267 304 316 335 337 328 327 274 280 274 235 289 244 275 333 306 353 14 359 333 318 312 267 245 296 335 337 0 12 21 40 47
291 271 286 301 316 309 291 301 283 237 251 226 257 277 309 319 332 337 307 320 276 294 308 293 216 23 357 44 18 355 350 332 305 289 264 212 261 69 29 11 50 26 29 69
278 307 320 292 283 264 270 255 244 242 265 263 303 345 326 324 326 315 298 293 304 293 330 320 11 266 74 54 35 22 4 6 3 10 197 204 190 125 88 50 80 58 47 49
264 191 241 250 191 255 234 221 235 249 263 285 315 353 314 322 307 272 268 283 266 298 296 270 62 283 91 63 45 29 20 48 49 49 53 65 83 96 107 95 72 64 59 53
196 180 214 230 188 237 222 248 305 326 333 316 318 326 343 297 279 280 269 288 323 278 311 36 216 267 99 95 64 38 40 40 54 52 47 61 61 73 79 70 66 60 61 38
215 212 241 218 235 245 268 292 304 304 306 308 309 311 306 288 276 266 282 268 264 263 15 10 353 38 52 47 67 52 30 32 41 50 59 42 50 40 10 17 3 359 356 353
237 234 238 265 266 262 276 272 274 278 290 297 318 311 285 259 256 245 237 253 265 355 359 209 82 356 34 259 55 37 22 14 19 18 17 15 8 6 352 341 337 345 348 347
230 234 241 259 270 262 261 262 263 272 280 278 261 255 244 272 244 244 231 295 359 275 358 295 356 338 334 325 320 329 319 345 348 340 339 337 337 339 343 341 341 339 331 328